Hourly Data Report for September 15, 2018

SHEARWATER RCS
NOVA SCOTIA
Current Station Operator: ECCC - MSC

44°37'47.000" N
63°30'48.000" W
24.00 m
8205092
71264
AAW

Download Data

Hourly Data (September 2018)
Hourly Data Report for September 15, 2018
TIME Temp Definition
°C
Dew Point Definition
°C
Rel Hum Definition
%
Wind Dir Definition
10's deg

Wind Spd Definition
km/h
Visibility Definition
km
Stn Press Definition
kPa
Hmdx Definition


Wind Chill Definition


Weather Definition


00:00 15.8 14.8 94 0 1   102.07     LegendNANA
01:00 15.5 14.6 94 11 2   102.05     LegendNANA
02:00 15.5 14.6 94   0   102.03     LegendNANA
03:00 15.4 14.6 95   0   102.00     LegendNANA
04:00 15.3 14.5 95 29 4   102.00     LegendNANA
05:00 16.0 15.3 96 32 5   102.01     LegendNANA
06:00 15.9 15.2 96 32 3   101.99     LegendNANA
07:00 16.8 16.1 96 32 1   102.01     LegendNANA
08:00 18.4 17.4 94 21 4   102.01     LegendNANA
09:00 20.6 15.2 72 19 5   101.97 25   LegendNANA
10:00 22.3 15.6 66 18 5   101.96 27   LegendNANA
11:00 23.9 16.2 62 17 7   101.91 29   LegendNANA
12:00 24.2 16.4 62 16 11   101.87 29   LegendNANA
13:00 26.1 15.4 52 19 6   101.79 30   LegendNANA
14:00 26.7 15.3 50 23 12   101.77 31   LegendNANA
15:00 26.6 16.0 52 22 15   101.77 31   LegendNANA
16:00 24.5 14.8 55 21 14   101.76 28   LegendNANA
17:00 22.9 14.7 60 22 14   101.75 27   LegendNANA
18:00 21.2 14.2 64 24 9   101.78 25   LegendNANA
19:00 19.9 14.5 71 29 5   101.78     LegendNANA
20:00 19.1 14.1 73 26 4   101.77     LegendNANA
21:00 18.3 15.2 82 25 5   101.76     LegendNANA
22:00 16.9 15.1 89 30 5   101.76     LegendNANA
23:00 16.7 14.7 88 32 7   101.72     LegendNANA

Notes on Data Quality.

Legend

  • E = Estimated
  • M = Missing
  • NA = Not Available*
  • [empty] = Indicates an unobserved value
Date modified: